Regional Weather Roundup
Issued by NWS

Home | Current Version | Previous Version | Text Only | Print | Product List | Glossary On
Versions: 1 2 3 4 5 6 7 8 9 10 11 12 13 14 15 16 17 18 19 20 21 22 23 24 25 26 27 28 29 30 31 32 33 34 35 36 37 38 39 40 41 42 43 44 45 46 47 48 49 50
767
ASUS44 KLIX 261513
RWRLA
LOUISIANA WEATHER ROUNDUP
NATIONAL WEATHER SERVICE NEW ORLEANS LA
900 AM CST SUN FEB 26 2017

NOTE: "FAIR" INDICATES FEW OR NO CLOUDS BELOW 12,000 FEET WITH NO
      SIGNIFICANT WEATHER AND/OR OBSTRUCTIONS TO VISIBILITY.
      SKY/WX - SKY CONDITION AND SIGNIFICANT WEATHER.
      TMP - AIR TEMPERATURE.    DP   - DEWPOINT TEMPERATURE.
      RH  - RELATIVE HUMIDITY.  PRES - PRESSURE.
      HX  - HEAT INDEX.         WCI  - WIND CHILL INDEX.

*  THESE STATIONS ARE NOT NWS OR FAA STATIONS AND ARE NOT UNDER
   NWS QUALITY CONTROL.

LAZ040-048-061>063-065-066-069-261600-
SOUTHEAST LOUISIANA

CITY           SKY/WX    TMP DP  RH WIND       PRES   REMARKS
N.O. AUDUBON   NOT AVBL
N.O. INTL ARPT SUNNY     55  40  56 E14       30.18R
N.O. LAKEFRONT SUNNY     54  42  64 E15       30.19R
N.O. DOWNTOWN*   N/A     54  42  64 VRB5      30.19R
RESERVE*       FAIR      57  40  53 E15G22    30.19R
SLIDELL        SUNNY     51  29  42 E12       30.20R
BATON ROUGE    SUNNY     50  30  46 E15       30.18R
BOOTHVILLE     SUNNY     62  50  64 E13       30.18R
BELLE CHASSE   SUNNY     59  46  62 E15       30.17R
BOGALUSA*      FAIR      49  29  46 E10       30.23R
GALLIANO*      SUNNY     63  45  52 E9G22     30.16S
NEW ROADS*     FAIR      48  31  50 E10G18    30.18R
GONZALES*      FAIR      53  37  53 E9        30.17R
HAMMOND*       SUNNY     50  28  43 E7        30.20S
HOUMA*         SUNNY     55  46  71 NE10      30.16R
PORT FOURCHON* NOT AVBL

$$

LAZ041-044-053-054-261600-
SOUTHWEST LOUISIANA

CITY           SKY/WX    TMP DP  RH WIND       PRES   REMARKS
LAKE CHARLES   SUNNY     54  41  61 E14       30.12R
LAFAYETTE      MOSUNNY   54  36  50 E8        30.16R
PATTERSON      SUNNY     57  44  62 E14       30.16R
SALT POINT       N/A     58  44  60 E10       30.13R
NEW IBERIA     MOSUNNY   54  37  52 E13       30.16R
CHENAULT AIRPK NOT AVBL

$$

LAZ027-028-261600-
CENTRAL LOUISIANA

CITY           SKY/WX    TMP DP  RH WIND       PRES   REMARKS
FORT POLK      SUNNY     50  31  48 E9G17     30.11R
ALEXANDRIA INT SUNNY     49  29  46 SE13      30.13S
ALEXANDRIA     SUNNY     49  29  46 E10       30.15R

$$

LAZ001-002-261600-
NORTHWEST LOUISIANA

CITY           SKY/WX    TMP DP  RH WIND       PRES   REMARKS
SHREVEPORT     MOSUNNY   50  28  42 SE16      30.11R
BARKSDALE AFB  SUNNY     48  30  48 SE10      30.12R
DTN SHREVEPORT SUNNY     48  28  46 SE14      30.12R

$$

LAZ014-016-261600-
NORTHEAST LOUISIANA

CITY           SKY/WX    TMP DP  RH WIND       PRES   REMARKS
MONROE         SUNNY     47  27  45 SE7       30.17R
TALLULAH       SUNNY     46  26  45 SE13      30.19R

$$





USA.gov is the U.S. government's official web portal to all federal, state and local government web resources and services.